Meriden, CT

3:26 AM EDT on July 24, 2017 (GMT -0400)
Meriden Markham Municipal

Weather History for KMMK - June, 2013

Change the Weather History Date:

Saturday, June 22, 2013

  Actual Average (KOXC) Record (KOXC)
Temperature  
Mean Temperature 70 °F -  
Max Temperature 82 °F 75 °F 87 °F (1997)
Min Temperature 57 °F 57 °F 48 °F (1999)
Cooling Degree Days 4    
Growing Degree Days 20 (Base 50)    
Moisture  
Dew Point 57 °F    
Average Humidity 65    
Maximum Humidity 93    
Minimum Humidity 41    
Precipitation  
Precipitation 0.00 in - - ()
Sea Level Pressure  
Sea Level Pressure 30.21 in    
Wind  
Wind Speed 4 mph (South)    
Max Wind Speed 15 mph    
Max Gust Speed 21 mph    
Visibility 10 miles    
Events      
Averages and records for this station are not official NWS values.
T = Trace of Precipitation, MM = Missing Value Source: NWS Daily Summary

Daily Weather History Graph

Daily Weather History Graph

Search for Another Location

Airport or City:

Trip Planner

Search our weather history database for the weather conditions in past years. The results will help you decide how hot, cold, wet, or windy it might be!

Date:

Astronomy

Jun. 22, 2013 Rise Set
Actual Time 5:17 AM EDT 8:28 PM EDT
Civil Twilight 4:43 AM EDT 9:03 PM EDT
Nautical Twilight 4:00 AM EDT 9:46 PM EDT
Astronomical Twilight 3:07 AM EDT 10:39 PM EDT
Moon 7:40 PM EDT (6/22) 4:28 AM EDT (6/22)
Length of Visible Light 16h 19m
Length of Day
15h 11m
Waxing Gibbous, 99% of the Moon is Illuminated
Jun 22
Waxing Gibbous
Jun 23
Full
Jun 30
Last Quarter
Jul 8
New
Jul 15
First Quarter

Hourly Weather History & Observations

Time (EDT) Temp. Heat Index Dew Point Humidity Pressure Visibility Wind Dir Wind Speed Gust Speed Precip Events Conditions
12:53 AM 61.0 °F - 55.9 °F 83% 30.25 in 10.0 mi Calm Calm - N/A   Clear
1:53 AM 60.1 °F - 57.0 °F 90% 30.25 in 10.0 mi Calm Calm - N/A   Clear
2:53 AM 59.0 °F - 57.0 °F 93% 30.26 in 10.0 mi Calm Calm - N/A   Clear
3:53 AM 57.9 °F - 55.0 °F 90% 30.25 in 10.0 mi Calm Calm - N/A   Clear
4:53 AM 57.0 °F - 55.0 °F 93% 30.25 in 9.0 mi Calm Calm - N/A   Clear
5:53 AM 57.0 °F - 55.0 °F 93% 30.25 in 9.0 mi Calm Calm - N/A   Clear
6:53 AM 62.1 °F - 57.9 °F 86% 30.24 in 10.0 mi Calm Calm - N/A   Clear
7:53 AM 66.0 °F - 57.9 °F 75% 30.24 in 10.0 mi SSE 4.6 mph - N/A   Clear
8:53 AM 71.1 °F - 55.9 °F 59% 30.24 in 10.0 mi Variable 3.5 mph - N/A   Clear
9:53 AM 75.0 °F - 55.0 °F 50% 30.24 in 10.0 mi SW 4.6 mph - N/A   Clear
10:42 AM 77.0 °F - 55.4 °F 47% 30.25 in 10.0 mi South 8.1 mph - N/A   Partly Cloudy
10:53 AM 78.1 °F - 55.9 °F 46% 30.25 in 10.0 mi Variable 5.8 mph - N/A   Clear
11:53 AM 79.0 °F - 55.9 °F 45% 30.25 in 10.0 mi Variable 6.9 mph - N/A   Clear
12:53 PM 81.0 °F 81.1 °F 57.9 °F 45% 30.22 in 10.0 mi South 10.4 mph - N/A   Clear
1:53 PM 82.0 °F 82.1 °F 59.0 °F 45% 30.21 in 10.0 mi South 10.4 mph - N/A   Clear
2:53 PM 82.0 °F 81.7 °F 57.0 °F 42% 30.19 in 10.0 mi South 15.0 mph 18.4 mph N/A   Clear
3:53 PM 82.0 °F 81.6 °F 55.9 °F 41% 30.17 in 10.0 mi South 15.0 mph 20.7 mph N/A   Clear
4:53 PM 79.0 °F - 57.9 °F 48% 30.16 in 10.0 mi South 12.7 mph 19.6 mph N/A   Clear
5:53 PM 75.9 °F - 57.9 °F 54% 30.15 in 10.0 mi SSW 8.1 mph 17.3 mph N/A   Clear
6:53 PM 73.9 °F - 57.0 °F 55% 30.14 in 10.0 mi South 11.5 mph - N/A   Clear
7:53 PM 72.0 °F - 57.0 °F 59% 30.14 in 10.0 mi SSE 9.2 mph - N/A   Clear
8:53 PM 70.0 °F - 57.9 °F 65% 30.15 in 10.0 mi South 6.9 mph - N/A   Clear
9:53 PM 68.0 °F - 59.0 °F 73% 30.18 in 10.0 mi South 4.6 mph - N/A   Clear
10:53 PM 66.0 °F - 57.9 °F 75% 30.18 in 10.0 mi South 4.6 mph - N/A   Clear
11:53 PM 64.0 °F - 57.9 °F 80% 30.19 in 10.0 mi Calm Calm - N/A   Clear